Retour au catalogue

THORAD AGENA D DEB

ActifLEO
NORAD 4993·DEBRIS·🇺🇸 United States

Lancé Apr 8, 1970 depuis Vandenberg Space Force Base

Loading…

Prochains Passages (prochaines 24 heures)

TLE

FraisSource: Space-Track

Époque: Sep 13, 2026, 09:55 UTC

1 04993U 70025HP  26256.41328923  .00000376  00000-0  27255-3 0  9992
2 04993 100.2120  55.3056 0083292 117.9350 243.0275 14.02136048851092

Suivez THORAD AGENA D DEB en temps réel avec AllMySat

Download on the App Store